Find Starlink 11397

NORAD ID: 62590 Int'l Des: 2025-008 Owner: SPXS Country: US Constellation: starlink operational
LEOCIRCULAR

实时位置

正在加载3D地球...

关于 Starlink 11397

正在加载描述...

即将过境

Passes for default location (London). Set your location on the main map for personalized predictions.

高度历史

Loading altitude history...

两行轨道根数

1 62590U 25008D 26125.43275218 .00253467 00000-0 19121-2 0 9998
2 62590 43.0019 143.6724 0002351 305.1364 54.9283 15.70927161 76150
Epoch: May 5, 2026 • Age: 19 hours

当前状态

高度 362.0 km
速度 7.69 km/s
星下点 -27.27°S, 43.55°E
发射日期 Jan 13, 2025
运行时间 1.3 years
类型 internet

技术详情

分类 Payload
质量 960.00 kg
干质量 910.00 kg
总质量 960.00 kg
长度 0.30 m
直径 4.10 m
跨度 29.00 m
形状 Box + pan
制造商 SPXS
平台类型 Starlink V2MD
阶段状态 In Orbit
所有者/国家 SPXS/US

Most Searched